Simultaneous Nadir Overpasses (SNOs) Predictions

Prediction of SNOs between AQUA and METOP-A Satellite Orbit:

Table of predicted SNOs for the next 14.0 days since TLE Epoch: 4/5/2014
Index Date (AQUA) Time (AQUA) Lat,Lon (AQUA) SZA (AQUA ) Date (METOP-A) Time (METOP-A) Lat,Lon (METOP-A) SZA (METOP-A ) Distance(km) Time Diff (sec)
1 04/07/2014 12:13:56 -73.92, 170.76 112.98 04/07/2014 12:12:46 -73.92, 170.82 112.97 1.62 70
2 04/07/2014 13:03:25 74.00, -21.77 67.09 04/07/2014 13:03:24 74.00, -21.66 67.09 3.27 1
3 04/07/2014 13:52:52 -74.08, 145.70 112.84 04/07/2014 13:54:05 -74.05, 145.79 112.88 4.18 73
4 04/10/2014 07:48:08 -73.93,-122.82 114.02 04/10/2014 07:47:10 -73.92,-122.77 114.02 1.68 58
5 04/10/2014 08:37:37 74.01, 44.64 66.06 04/10/2014 08:37:48 74.00, 44.74 66.04 3.58 11
6 04/10/2014 09:27:12 -74.50,-148.85 113.44 04/10/2014 09:28:20 -74.49,-146.68 113.52 64.74 68
7 04/13/2014 03:22:17 -73.90, -56.29 115.09 04/13/2014 03:21:33 -73.92, -56.39 115.06 3.39 44
8 04/13/2014 04:11:46 73.99, 111.15 64.99 04/13/2014 04:12:11 73.99, 111.13 65.00 0.97 25
9 04/15/2014 22:56:27 -73.93, 10.10 116.08 04/15/2014 22:55:56 -73.95, 10.09 116.05 2.03 31
10 04/15/2014 23:45:56 74.02, 177.54 64.01 04/15/2014 23:46:34 74.02, 177.60 64.01 2.08 38
11 04/18/2014 17:40:57 73.27, -89.67 62.25 04/18/2014 17:39:52 73.21, -92.53 62.30 91.86 65
12 04/18/2014 18:30:36 -73.97, 76.48 117.03 04/18/2014 18:30:19 -73.97, 76.54 117.03 1.90 17
13 04/18/2014 19:20:04 74.01,-115.98 63.01 04/18/2014 19:20:58 73.99,-116.06 62.99 3.18 54




NCC Satellite Simultaneous Nadir Overpasses (SNOs) Prediction Service
